Regional Weather Roundup
Issued by NWS Pendleton, OR

Home | Current Version | Previous Version | Text Only | Print | Product List | Glossary On
Versions: 1 2 3 4 5 6 7 8 9 10 11 12 13 14 15 16 17 18 19 20 21 22 23 24 25 26 27 28 29 30 31 32 33 34 35 36 37 38 39 40 41 42 43 44 45 46 47 48 49 50
000
ASUS46 KPDT 290104
RWRPDT
PENDLETON REGIONAL WEATHER ROUNDUP
NATIONAL WEATHER SERVICE PENDLETON OREGON
600 PM PDT THU MAY 28 2015

NOTE: FAIR INDICATES FEW OR NO CLOUDS BELOW 12,000 FEET WITH NO
SIGNIFICANT WEATHER AND/OR OBSTRUCTIONS TO VISIBILITY.

# INDICATES UNOFFICIAL STATION AND DATA

WAZ520-290210-
EAST SLOPES OF WASHINGTON CASCADES

CITY            SKY/WX      TMP DP  RH  WIND    PRES   REMARKS
#BULLFROG       N/A         74  53  48  W1      N/A
#BULLFROG 2SW   N/A         72  54  53  N2      27.62S
#BUMPING DAM    N/A         61  N/A N/A CALM    N/A
#CLE ELUM HS    N/A         75  53  46  SW5     29.94R
#CLE ELUM LAKE  N/A         75  56  52  W1      29.91S
#CLIFFDEL 2NW   N/A         71  49  46  N3      N/A
#EASTON DOT     N/A         69  48  47  N1      N/A
#ELK HTS DOT    N/A         79  79  100 N1      N/A
#GLENWOOD       N/A         82  53  37  CALM    29.91F
#NELSON         N/A         74  56  53  CALM    29.93R
#NELSON 3SW     N/A         67  58  73  CALM    30.11S
#NILE           N/A         78  48  35  CALM    29.20S
#PEOH POINT     N/A         68  47  47  W3      N/A
#RONALD 2NW     N/A         77  56  48  SW2     29.91S
#SNOWDEN        N/A         77  26  15  NW2     N/A
#SOUTH BLEWITT  N/A         75  46  36  CALM    N/A
#TEANAWAY 4NE   N/A         80  55  42  CALM    N/A
#TROUT LAKE 1NE N/A         81  51  35  CALM    29.92S
$$

WAZ521-290210-
SIMCOE HIGHLANDS

CITY            SKY/WX      TMP DP  RH  WIND    PRES   REMARKS
#BICKLETON HS   N/A         74  35  24  S1      N/A
#SATUS PASS DOT N/A         79  37  22  CALM    N/A
#CENTERVILLE 4W N/A         86  49  28  SW2     29.72F
#CENTERVILLE 1SWN/A         84  45  26  SW2     29.88S
#GOLDENDALE     N/A         84  39  20  S3      N/A
#GOLDENDALE 5WNWN/A         84  49  30  CALM    29.89S
#GOODNOE HILLS  N/A         90  42  19  E5      N/A    HX 86
#LYLE 6NE       N/A         82  50  33  S3      29.88S
$$

WAZ026-290210-
KITTITAS VALLEY

CITY            SKY/WX      TMP DP  RH  WIND    PRES   REMARKS
ELLENSBURG AP   SUNNY       84  46  27  CALM    29.96F
YTC-OPS AREA    N/A         74  42  32  E9      30.02S
#ELLENSBURG CWU N/A         85  43  23  SE7     29.85S
#ELLENSBURG 3NE N/A         81  51  35  CALM    29.97S
#KITTITAS 4N    N/A         83  50  32  N1      28.29S
#KITTITAS 3S    N/A         83  47  28  CALM    29.88S
#MANASTASH RDG  N/A         81  81  100 S8      N/A
#ROCKY CYN DOT  N/A         81  46  29  E9      N/A
#RYEGRASS DOT   N/A         78  44  30  E7      N/A
#THORP 6N       N/A         77  44  31  SE7     29.93S
$$

WAZ027-290210-
YAKIMA VALLEY

CITY            SKY/WX      TMP DP  RH  WIND    PRES   REMARKS
SUNNYSIDE AP    SUNNY       86  43  22  SE6     29.94F
YAKIMA AIRPORT  MOSUNNY     88  46  23  SE6     29.94F
#DONALD 2NE     N/A         91  17   7  E1      28.79F HX 87
#GRANDVIEW      N/A         84  45  26  NE2     29.92F
#MABTON         N/A         85  51  31  E5      29.92F
#NACHES 2SW     N/A         84  56  38  SE2     29.99F
#PARKER DOT     N/A         87  47  25  W5      N/A
#SELAH 8E       N/A         84  40  21  S6      N/A
#TERRACE HTS    N/A         85  46  26  S1      29.87S
#TOPPENISH      N/A         85  49  29  E5      29.81F
#I82 S UMTANUM RN/A         84  46  27  SE6     N/A
#UNION GAP DOT  N/A         86  44  23  S5      N/A
#WAPATO 4NE     N/A         91  17   7  E1      28.79F HX 87
#WEST VALLEY    N/A         84  47  28  W2      29.88S
#W YAKIMA       N/A         84  48  29  E2      29.89F
#WHITE SWAN 5E  N/A         85  53  33  E7      29.89F
#WILEY CITY 3W  N/A         87  40  19  CALM    29.88F
#ZILLAH DOT     N/A         88  44  22  E6      N/A
$$

WAZ028-290210-
LOWER COLUMBIA BASIN...WASHINGTON

CITY            SKY/WX      TMP DP  RH  WIND    PRES   REMARKS
PASCO           SUNNY       88  44  22  NE7     29.93F
RICHLAND AWOS   SUNNY       88  45  23  NE3     29.93F
#BASIN CITY 5SW N/A         84  57  40  CALM    29.94F
#BENTON CITY    N/A         84  51  32  E3      29.81F
#CONNELL 5N     N/A         86  50  29  W2      29.92F
#CONNELL 5NW    N/A         84  53  34  CALM    29.88F
#ELTOPIA 6NW    N/A         83  51  33  SW7     28.93F
#KAHLOTUS       N/A         83  47  28  E1      29.93S
#KENNEWICK      N/A         72  54  53  N2      27.62S
#KENNEWICK 3S   N/A         87  51  29  CALM    29.91S
#PATERSON       N/A         86  48  27  SE2     29.89F
#PROSSER DOT    N/A         89  41  19  E1      N/A
#PROSSER        N/A         87  44  22  SE1     29.90F
#SAGEMOOR 2W    N/A         88  52  29  CALM    29.78S
#TOUCHET 2S     N/A         83  62  49  CALM    29.89F
#WEST PASCO     N/A         90  51  26  N2      29.92F HX 87
$$

WAZ029-290210-
FOOTHILLS OF THE BLUES...WASHINGTON

CITY            SKY/WX      TMP DP  RH  WIND    PRES   REMARKS
WALLA WALLA AP  SUNNY       85  48  28  NE9     29.96F
#DAYTON SCHOOL  N/A         80  45  29  VRB2    30.00F
#LOWDEN 2SE     N/A         86  53  32  SE2     29.90F
#PLEASANT VIEW 1N/A         79  48  34  E2      29.96F
#PRESCOTT       N/A         84  54  36  CALM    29.91S
#SUDBURY        N/A         86  N/A N/A CALM    N/A
#WHITMAN COLLEGEN/A         85  53  33  N1      29.96F
#WAITSBURG 8N   N/A         87  30  13  E3      29.82S
#WALLA WALLA U  N/A         85  51  31  CALM    29.91S
#WHITMAN MISSIONN/A         88  54  31  CALM    29.92F
$$

WAZ030-290210-
BLUE MOUNTAINS...WASHINGTON

CITY            SKY/WX      TMP DP  RH  WIND    PRES   REMARKS
#DIXIE 5SE      N/A         72  46  39  NE3     30.00F
$$

ORZ009-041-WAZ024-290210-
COLUMBIA RIVER GORGE

CITY            SKY/WX      TMP DP  RH  WIND    PRES   REMARKS
HOOD RIVER AP   PTCLDY      86  54  34  CALM    29.93S
THE DALLES AP   PTCLDY      91  44  20  N8      29.88F HX 87
#ARLINGTON AIRPON/A         86  41  21  NE8     29.63F
#MARYHILL       N/A         88  44  22  CALM    N/A
#MOSIER 1S      N/A         85  40  20  N6      29.91S
#MURDOCK        N/A         88  53  30  NW3     29.89F

$$

ORZ510-290210-
NORTH CENTRAL OREGON

CITY            SKY/WX      TMP DP  RH  WIND    PRES   REMARKS
#CHENOWITH 1W   N/A         81  47  30  N9      N/A
#COW CYN RST AREN/A         78  N/A N/A CALM    N/A
#DUFUR 9E       N/A         79  47  32  NW3     29.93F
#GRASS VALLEY 1SN/A         81  48  32  CALM    29.93S
#MAUPIN SCHOOL  N/A         88  54  31  N2      29.93F
#MORO SCHOOL    N/A         82  54  38  N1      29.98S
#SHANIKO 4NW    N/A         77  39  25  E2      30.06F
#TYGH VALLEY 2NEN/A         87  50  28  S1      29.87F
#WAPANITIA AIRPON/A         85  44  24  NE3     29.90F
#WASCO 5NE      N/A         85  47  27  CALM    29.89F
$$

ORZ511-290210-
CENTRAL OREGON

CITY            SKY/WX      TMP DP  RH  WIND    PRES   REMARKS
BEND AIRPORT    PTCLDY      77  36  23  N8      30.03S
MADRAS AIRPORT  PTCLDY      82  39  22  N6      30.01F
PRINEVILLE AP   PTCLDY      79  34  20  CALM    30.02F
REDMOND AIRPORT PTCLDY      79  41  26  VRB6    30.01F
#BEND 1SW       N/A         75  41  29  NE3     N/A
#BEND-AWBREY    N/A         79  38  23  NE1     29.90F
#BEND-KIM LN    N/A         78  41  27  N1      30.01F
#CROOKED RVR RANN/A         80  44  28  NE2     29.88F
#CULVER         N/A         80  41  25  E2      29.96F
#LAKE BILLY CHINN/A         79   2   5  E3      30.04S
#POWELL BUTTE 3EN/A         79  39  24  N6      N/A
#POWELL BUTTE   N/A         79  44  29  N5      29.66F
#PRINEVILLE 3N  N/A         79  47  32  W1      29.86F
#WARM SPRINGS   N/A         87  38  18  CALM    29.92S

$$


ORZ509-290210-
EAST SLOPES OF OREGON CASCADES

CITY            SKY/WX      TMP DP  RH  WIND    PRES   REMARKS
#BLUE BOX PASS  N/A         71  12  10  CALM    N/A
#CAMP SHERMAN   N/A         80  41  25  CALM    29.92F
#LA PINE 4NW    N/A         75  45  34  CALM    29.95S
#SISTERS AIRPOR N/A         78  50  38  N1      30.17S
#SISTERS ODOT   N/A         78  N/A N/A CALM    N/A
#SISTERS 3N     N/A         76  43  31  N2      30.01S
#SUNRIVER       N/A         76  41  28  CALM    29.82S
#TUMALO 3W      N/A         77  39  25  N1      29.78F
#WANOGA BUTTE D N/A         64  35  34  E6      N/A

$$

ORZ044-290210-
LOWER COLUMBIA BASIN...OREGON

CITY            SKY/WX      TMP DP  RH  WIND    PRES   REMARKS
HERMISTON       SUNNY       88  43  21  VRB6    29.92F
#BOARDMAN SCHOOLN/A         86  45  24  N5      29.93F
#ECHO 8SW       N/A         87  49  27  N2      29.95F
#IONE SCHOOL    N/A         85  48  28  N5      29.91F
#IRRIGON 4NW    N/A         90  41  18  E3      N/A    HX 86
#UMATILLA SCHOOLN/A         91  55  30  N3      29.98R HX 89
#UMATILLA       N/A         90  43  20  CALM    29.83F HX 86
$$

ORZ507-290210-
NORTHERN FOOTHILLS OF THE BLUES

CITY            SKY/WX      TMP DP  RH  WIND    PRES   REMARKS
PENDLETON AIRPT SUNNY       83  47  28  NE7     29.95F
#ADAMS 3WNW     N/A         81  51  35  NE3     29.92S
#ATHENA         N/A         80  51  36  NE3     29.95F
#CAYUSE         N/A         82  52  35  NE2     29.91S
#HELIX SCHOOL   N/A         80  47  31  N5      29.93S
#HELIX 3N       N/A         78  47  34  E7      29.97S
#HOLDMAN 6E     N/A         83  45  26  SW7     29.74S
#M-F FERNDALE   N/A         86  55  35  CALM    29.94S
#M-F GROVE ELEM N/A         83  47  28  CALM    29.95S
#M-FREEWATER 5SEN/A         82  55  40  CALM    29.97S
#PENDLETON DNTN N/A         86  43  22  CALM    29.93S
#PDT AQUATIC CTRN/A         75  53  46  CALM    29.98S
#PENDLETON 5NE  N/A         81  53  38  E3      29.93F
#PDT SUNRIDGE   N/A         84  48  29  NE1     29.96S
#PENDLETON 7NW  N/A         85  55  36  NW1     27.62S
#PILOT ROCK     N/A         81  44  27  NW1     29.99F
#TUTUILLA       N/A         82  54  38  E3      29.94S
#UMAPINE 2E     N/A         87  54  32  CALM    29.91F
#WESTON SCHOOL  N/A         78  46  32  E7      29.93S

$$

ORZ508-290210-
SOUTHERN FOOTHILLS OF THE BLUES

CITY            SKY/WX      TMP DP  RH  WIND    PRES   REMARKS
#AJAX           N/A         82  42  24  NE5     29.93S
#CONDON SCHOOL  N/A         81  47  30  CALM    29.98F
#CONDON 5W      N/A         75  42  31  NE2     30.03S
#FOSSIL SCHOOL  N/A         78  43  29  VRB2    29.96F
#HEPPNER EOC    N/A         82  47  29  NE7     29.85S
#HEPPNER 4NE    N/A         77  47  35  NW3     29.92F
#LEXINGTON 2SE  N/A         85  49  29  CALM    29.92S
#RUGGS 5NE      N/A         76  44  32  VRB3    30.20S
#RUGGS 2SW      N/A         78  45  31  NE5     29.93S

$$

ORZ502-503-290210-
BLUE MOUNTAINS

CITY            SKY/WX      TMP DP  RH  WIND    PRES   REMARKS
MEACHAM         SUNNY       72  46  39  VRB7    30.08F
#HEPPNER 15SE   N/A         73  46  38  CALM    30.00F
#LONG CREEK HS  N/A         73  43  34  CALM    30.01F
#PIKES PEAK     N/A         70  49  47  N7      27.99S
#TOLLGATE       N/A         65  49  56  VRB2    30.06S
#TROY SCHOOL    N/A         82  53  37  SE2     29.78F
#UKIAH          N/A         75  45  34  NW1     30.00S
#WESTON 4E      N/A         75  52  45  NW1     29.90S
$$

ORZ505-290210-
JOHN DAY BASIN

CITY            SKY/WX      TMP DP  RH  WIND    PRES   REMARKS
JOHN DAY        PTCLDY      77  40  26  NW6     30.06F
#JOHN DAY KJDY  N/A         82  52  35  SW2     29.95F
#DAYVILLE SCHOOLN/A         83  34  17  W1      29.97F
#MITCHELL       N/A         79  49  35  CALM    30.15F
#MONUMENT HS    N/A         83  40  22  CALM    29.98F
#MT. VERNON 5SE N/A         75  38  26  CALM    30.03S
$$

ORZ506-290210-
OCHOCO AND JOHN DAY HIGHLANDS

CITY            SKY/WX      TMP DP  RH  WIND    PRES   REMARKS
#BUCK CREEK DOT N/A         77  77  100 N3      N/A
#PAULINA SCHOOL N/A         76  41  28  CALM    30.02F
#PINE MTN OBS   N/A         63  38  39  E2      N/A
#PRAIRIE CITY   N/A         79  47  32  CALM    29.84F
#SENECA         N/A         75  N/A N/A N1      N/A
#SENECA 9NW     N/A         74  41  30  CALM    29.96F
$$

ORZ049-290210-
GRANDE RONDE VALLEY

CITY            SKY/WX      TMP DP  RH  WIND    PRES   REMARKS
LA GRANDE       PTCLDY      77  39  25  CALM    30.01F
#COVE           N/A         77  52  42  NW2     30.04S
#COVE SCHOOL    N/A         80  46  30  CALM    30.01S
#ELGIN 3N       N/A         78  41  27  CALM    30.00S
#ELGIN 1E       N/A         80  47  31  CALM    N/A
#ISLAND CITY 4N N/A         84  63  49  CALM    29.93F
#LA GRANDE ELEM N/A         78  44  30  SE2     30.04S
#UNION 1S       N/A         79  48  34  CALM    29.86F
$$

ORZ050-290210-
WALLOWA COUNTY

CITY            SKY/WX      TMP DP  RH  WIND    PRES   REMARKS
#ENTERPRISE HS  N/A         73  47  40  CALM    30.07F
#IMNAHA SCHOOL  N/A         79  44  29  N2      29.98F
#IMNAHA 10S     N/A         77  50  39  N1      30.02S
#JOSEPH 3N      N/A         70  43  38  W1      30.11S
#JOSEPH 3W      N/A         61  50  67  SW1     29.96S
#LOSTINE        N/A         76  45  33  CALM    29.78F
#MT HOWARD 8000 N/A         50  40  68  CALM    30.30S
#PROMISE 1S     N/A         72  48  43  W2      30.08S
#SHEEP RDG 7000 N/A         56  42  59  CALM    30.09S
#WALLOWA SCHOOL N/A         78  44  30  CALM    30.87F



$$



USA.gov is the U.S. government's official web portal to all federal, state and local government web resources and services.